Tracking 27112 objects as of 26-Mar-2023
HD Live streaming from Space Station
objects crossing your sky now

STARLINK-1990

Track STARLINK-1990 now!
10-day predictions
STARLINK-1990 is classified as:


NORAD ID: 47586
Int'l Code: 2021-009AQ
Perigee: 553.5 km
Apogee: 555.4 km
Inclination: 53.1 °
Period: 95.6 minutes
Semi major axis: 6925 km
RCS: Unknown
Launch date: February 4, 2021
Source: United States (US)
Launch site: AIR FORCE EASTERN TEST RANGE (AFETR)
Your satellite tracking list
Your tracking list is empty




NASA's NSSDC Master Catalog

Two Line Element Set (TLE):
1 47586U 21009AQ  23085.07905934 -.00008383  00000-0 -54505-3 0  9993
2 47586  53.0527 208.1810 0001331  92.0911 268.0230 15.06366537118399
Source of the keplerian elements: AFSPC